User: anonymous   Login
Location: Fort Worth, Tx
(32.7431°N, 97.3695°W)
Time: 20:47:45
(UTC-04:00)
Language:

CUTE-I - Orbit

View from above orbital plane
View from above orbital plane
View from above satellite
View from above satellite

Ground track
Ground track

The orbit data is extracted from the following two-line orbital elements,

1 27844U 03031E   24103.56833973  .00000478  00000-0  23089-3 0  9990
2 27844  98.6799 111.5114 0009258 342.4333  17.6523 14.23156493 78451
Epoch (UTC): 12 April 2024 13:38:24
Eccentricity: 0.0009258
inclination: 98.6799°
perigee height: 808 km
apogee height: 821 km
right ascension of ascending node: 111.5114°
argument of perigee: 342.4333°
revolutions per day: 14.23156493
mean anomaly at epoch: 17.6523°
orbit number at epoch: 7845

The dashed part of the orbit path shows where the satellite is in the earth's shadow,  

DLR